sat.trackr.live / text

‹ back to catalog

STARLINK-5386

NORAD 54834 · 2022-177Q

PAYLOAD ACTIVE UNKNOWN

§ Identity

Operator
Country
US
Launch date
2022-12-28
Launch site
AFETR
Launch vehicle
Mass (kg)
RCS (m²)

Purposes: comms

External: N2YO · Heavens-Above · Gunter

§ Orbital elements

Epoch: 2026-09-19T23:38:47.674464Z

Period
94.27 min
Inclination
43.0040°
Eccentricity
0.0001233
Mean motion
15.27576788 rev/d
Perigee alt
482.2 km
Apogee alt
483.9 km
Semi-major
6,861.2 km
B*
7.9438e-6
RAAN
119.1809°
Arg perigee
264.3619°
Mean anomaly
95.7092°
Rev number
20,664

§ Raw data

STARLINK-53861 54834U 22177Q   26262.98527401 -.00000044  00000+0  79438-5 0  99912 54834  43.0040 119.1809 0001233 264.3619  95.7092 15.27576788206642

JSON: /api/v1/satellites/54834 · /tle

For live sub-satellite position, see the globe view (requires WebGL).

§ Visibility from observer

Set your observer location to see the next 7 days of passes ≥ 10°. The values pass through the URL so the page stays shareable.

No JS? Fill the form by hand. The geolocation button needs JavaScript.